STARLINK-1321 (45573 NORAD) Tracking and Keplerian Element Data

This shows tracking and keplerian element data for the satellite.

Feedback or suggestion? Click here.




ElementValue
Catalog45573
NameSTARLINK-1321
Epoch Orbit624
Epoch Day149.08334491
Epoch Year2020
RAAN225.4221
Inclination52.9973
Eccentricity0.0001112
Argument of Perigee93.7397
Mean Anonmoly330.6
Mean Motion15.6268393
Decay Rate0.00055555
L11 45573U 20025AU 20149.08334491 .00055555 00000-0 61004-3 0 9990
L22 45573 52.9973 225.4221 0001112 93.7397 330.6000 15.62683930 6249

Live tracking and technical data element details for STARLINK-1321 (NORAD 45573). STARLINK-1321 can be tracked NOW for your location showing map with azimuth and elevation plus other details from your city location.

Track the satellite on the map from your city or location and see movement details for azimuth, elevation, latitude, longitude, range, height, and movement on the map or in text.







IsCatalogInMostPopularTable: catalog: 45573, numindb: 8
Update: records affected: 1



GetName: 45573 STARLINK-1321

Hit Count: updated at: Sat, 30 May 2020 15:22:25 GMT